Regional Weather Roundup
Issued by NWS

Home | Current Version | Previous Version | Graphics & Text | Print | Product List | Glossary On
Versions: 1 2 3 4 5 6 7 8 9 10 11 12 13 14 15 16 17 18 19 20 21 22 23 24 25 26 27 28 29 30 31 32 33 34 35 36 37 38 39 40 41 42 43 44 45 46 47 48 49 50
000
ASUS43 KOAX 300602
RWRNE
WEATHER ROUNDUP FOR NEBRASKA
NATIONAL WEATHER SERVICE OMAHA NE
100 AM CDT TUE JUN 30 2015

NOTES: SATELLITE DATA IS BEING USED TO AUGMENT CLOUD COVER ABOVE
       12000 FEET.
       "FAIR" INDICATES FEW OR NO CLOUDS BELOW 12,000 FEET WITH NO
       SIGNIFICANT WEATHER AND/OR OBSTRUCTIONS TO VISIBILITY.

  * THESE STATIONS DO NOT REPORT WEATHER SUCH AS RAIN...SNOW OR FOG.

NEZ001>004-019>022-054>056-300700-
NEBRASKA PANHANDLE

CITY           SKY/WX    TMP DP  RH WIND       PRES   REMARKS
SCOTTSBLUFF    CLEAR     67  56  67 CALM      30.12S
6HR MIN TEMP:  66; 6HR MAX TEMP:  87;

ALLIANCE       PTCLDY    58  56  93 W7        30.11S
6HR MIN TEMP:  58; 6HR MAX TEMP:  84;

CHADRON        CLEAR     61  58  90 W5        30.06F
6HR MIN TEMP:  61; 6HR MAX TEMP:  86;

KIMBALL          N/A    N/A N/A N/A MISG        N/A
SIDNEY         CLEAR     64  57  78 S5        30.15S
6HR MIN TEMP:  62; 6HR MAX TEMP:  87;

$$

NEZ057>060-069>072-079>082-300700-
SOUTHWEST NEBRASKA

CITY           SKY/WX    TMP DP  RH WIND       PRES   REMARKS
NORTH PLATTE   CLEAR     67  61  81 E3        30.06R
6HR MIN TEMP:  66; 6HR MAX TEMP:  89;

IMPERIAL       CLEAR     69  56  62 SW3       30.08R
6HR MIN TEMP:  66; 6HR MAX TEMP:  90;

LEXINGTON      CLEAR     65  62  88 CALM      30.03S
MCCOOK         CLEAR     74  58  57 S3        30.04R
6HR MIN TEMP:  73; 6HR MAX TEMP:  93;

$$

NEZ005>010-023>029-035>040-094-300700-
NORTH CENTRAL NEBRASKA

CITY           SKY/WX    TMP DP  RH WIND       PRES   REMARKS
VALENTINE      CLEAR     63  60  90 SW5       30.02S
6HR MIN TEMP:  63; 6HR MAX TEMP:  88;

AINSWORTH      CLEAR     66  60  83 CALM      30.02S
BROKEN BOW     CLEAR     64  60  87 CALM      30.03R
6HR MIN TEMP:  64; 6HR MAX TEMP:  88;

ORD            CLEAR     63  58  83 CALM      29.99R
6HR MIN TEMP:  63; 6HR MAX TEMP:  88;

$$

NEZ041-046>049-061>064-073>077-083>087-300700-
SOUTH CENTRAL NEBRASKA

CITY           SKY/WX    TMP DP  RH WIND       PRES   REMARKS
GRAND ISLAND   CLEAR     69  61  75 CALM      29.99S
6HR MIN TEMP:  68; 6HR MAX TEMP:  89;

HASTINGS       CLEAR     70  62  76 CALM      29.99S
6HR MIN TEMP:  70; 6HR MAX TEMP:  87;

KEARNEY *      CLEAR     66  61  82 CALM      30.00S
$$

NEZ011>018-030>034-042>045-300700-
NORTHEAST NEBRASKA

CITY           SKY/WX    TMP DP  RH WIND       PRES   REMARKS
NORFOLK        CLEAR     64  61  90 SW3       29.95S
6HR MIN TEMP:  64; 6HR MAX TEMP:  84;

COLUMBUS *     CLEAR     64  57  77 NW3       29.96R
FREMONT        CLEAR     69  62  80 CALM      29.94R
TEKAMAH        PTCLDY    66  60  81 SW6       29.91F
6HR MIN TEMP:  65; 6HR MAX TEMP:  83;

$$

NEZ050>053-065>068-078-088>093-300700-
SOUTHEAST NEBRASKA

CITY           SKY/WX    TMP DP  RH WIND       PRES   REMARKS
LINCOLN        CLEAR     68  64  87 CALM      29.95S
6HR MIN TEMP:  67; 6HR MAX TEMP:  86;

OMAHA EPPLEY   CLOUDY    70  63  78 CALM      29.92R
6HR MIN TEMP:  70; 6HR MAX TEMP:  83;

FALLS CITY     PTCLDY    69  65  86 CALM      29.92F
6HR MIN TEMP:  69; 6HR MAX TEMP:  83;

PLATTSMOUTH    CLOUDY    71  60  67 SW5       29.93S
$$

NEZ044-045-051>053-067-300700-
OMAHA AREA

CITY           SKY/WX    TMP DP  RH WIND       PRES   REMARKS
OMAHA EPPLEY   CLOUDY    70  63  78 CALM      29.92R
6HR MIN TEMP:  70; 6HR MAX TEMP:  83;

FREMONT        CLEAR     69  62  80 CALM      29.94R
MILLARD        CLEAR     68  65  90 CALM      29.92S
OFFUTT AFB     CLEAR     65  63  91 SW2       29.91S
PLATTSMOUTH    CLOUDY    71  60  67 SW5       29.93S
$$



USA.gov is the U.S. government's official web portal to all federal, state and local government web resources and services.